DW9750 Weather Reports


time (UTC)temp
F
wind
direction
speed
knots
gust
knots
rain 1hr
in
rain 24hr
in
rain mn
in
humidity
%
barometer
mb
20220627210056 71 309 0.0 0.0 0.54 0.54 0.54 77 1016.6
20220627204555 70 103 0.9 4.3 0.54 0.54 0.54 77 1016.2
20220627203054 70 86 0.9 6.1 0.53 0.53 0.53 78 1016.5
20220627201557 72 117 2.6 9.6 0.47 0.47 0.47 81 1017.0
20220627200051 90 87 1.7 9.6 0.00 0.00 0.00 49 1016.5
20220627194551 95 261 0.0 3.5 0.00 0.00 0.00 43 1016.0
20220627193055 96 276 0.0 6.1 0.00 0.00 0.00 43 1016.0
20220627191554 94 79 0.9 9.6 0.00 0.00 0.00 46 1016.1
20220627190046 95 96 0.0 2.6 0.00 0.00 0.00 41 1016.4
20220627184556 97 88 0.0 4.3 0.00 0.00 0.00 39 1016.7
20220627183041 96 15 0.0 4.3 0.00 0.00 0.00 39 1016.9
20220627181640 95 105 0.0 4.3 0.00 0.00 0.00 42 1017.2
20220627180038 97 5 0.9 6.1 0.00 0.00 0.00 39 1017.5
20220627174537 95 108 0.0 5.2 0.00 0.00 0.00 41 1017.6
20220627173044 96 114 0.0 3.5 0.00 0.00 0.00 40 1017.8
20220627171534 93 141 0.9 3.5 0.00 0.00 0.00 43 1017.9
20220627170032 92 3 0.0 2.6 0.00 0.00 0.00 47 1018.0
20220627164538 91 1 0.0 4.3 0.00 0.00 0.00 47 1018.2
20220627163031 93 95 0.0 4.3 0.00 0.00 0.00 44 1018.1
20220627161530 94 3 0.0 7.0 0.00 0.00 0.00 44 1018.2
20220627160026 93 27 0.0 4.3 0.00 0.00 0.00 45 1018.2
20220627154523 93 302 0.0 4.3 0.00 0.00 0.00 45 1018.3
20220627153020 92 32 0.0 4.3 0.00 0.00 0.00 45 1018.4
20220627151522 91 5 0.0 3.5 0.00 0.00 0.00 45 1018.5
20220627150017 90 102 0.0 4.3 0.00 0.00 0.00 46 1018.5
20220627144520 89 6 0.0 3.5 0.00 0.00 0.00 48 1018.5
20220627143011 88 24 0.0 2.6 0.00 0.00 0.00 48 1018.5
20220627141508 87 28 0.0 2.6 0.00 0.00 0.00 50 1018.4
20220627140004 85 296 0.0 3.5 0.00 0.00 0.00 55 1018.4
20220627134559 82 219 0.0 1.7 0.00 0.00 0.00 62 1018.5
20220627133058 79 269 0.0 1.7 0.00 0.00 0.00 67 1018.6
20220627131557 77 290 0.0 0.9 0.00 0.00 0.00 71 1018.5
20220627130059 75 3 0.0 0.9 0.00 0.00 0.00 74 1018.6
20220627124554 74 3 0.0 0.0 0.00 0.00 0.00 75 1018.7
20220627123054 74 5 0.0 0.0 0.00 0.00 0.00 75 1018.7
20220627121552 73 5 0.0 0.9 0.00 0.00 0.00 75 1018.6
20220627120056 73 31 0.0 0.0 0.00 0.00 0.00 75 1018.2
20220627114550 72 50 0.0 0.0 0.00 0.00 0.00 74 1018.1
20220627113046 72 53 0.0 0.9 0.00 0.00 0.00 75 1018.2
20220627111551 69 100 0.0 0.9 0.00 0.00 0.00 79 1017.9
20220627110044 69 100 0.0 0.0 0.00 0.00 0.00 77 1017.4
20220627104550 70 100 0.0 0.0 0.00 0.00 0.00 77 1017.4
20220627103047 70 100 0.0 0.0 0.00 0.00 0.00 78 1017.5
20220627101547 70 100 0.0 0.0 0.00 0.00 0.00 78 1017.5
20220627100040 70 100 0.0 0.9 0.00 0.00 0.00 77 1017.6
20220627094539 69 100 0.0 0.0 0.00 0.00 0.00 76 1017.5
20220627093043 69 100 0.0 0.0 0.00 0.00 0.00 76 1017.6
20220627091537 70 100 0.0 0.0 0.00 0.00 0.00 76 1017.4
20220627090035 70 100 0.0 0.0 0.00 0.00 0.00 75 1017.4
20220627084533 71 100 0.0 0.0 0.00 0.00 0.00 74 1017.3
20220627083032 71 100 0.0 0.0 0.00 0.00 0.00 73 1017.2
20220627081530 72 100 0.0 0.0 0.00 0.00 0.00 71 1017.3
20220627080025 73 100 0.0 0.0 0.00 0.00 0.00 69 1017.3
20220627074522 74 100 0.0 0.0 0.00 0.00 0.00 68 1017.5
20220627073020 74 100 0.0 0.0 0.00 0.00 0.00 68 1017.7
20220627071518 75 100 0.0 0.0 0.00 0.00 0.00 67 1017.8
20220627070017 75 100 0.0 0.0 0.00 0.00 0.00 67 1017.8
20220627064514 77 100 0.0 0.0 0.00 0.00 0.00 64 1017.9
20220627063009 79 100 0.0 0.0 0.00 0.00 0.00 63 1018.0
20220627061515 80 100 0.0 0.9 0.00 0.00 0.00 60 1017.9
20220627060016 79 100 0.0 1.7 0.00 0.00 0.00 62 1017.9
20220627054506 79 110 0.0 0.0 0.00 0.00 0.00 65 1017.8
20220627053002 80 110 0.0 0.0 0.00 0.00 0.00 64 1017.7
20220627051601 80 110 0.0 0.9 0.00 0.00 0.00 63 1017.5
20220627050055 81 110 0.0 0.0 0.00 0.00 0.00 62 1017.2
20220627044554 82 110 0.0 0.9 0.00 0.00 0.00 58 1017.1
20220627043054 83 110 0.0 5.2 0.00 0.00 0.00 56 1017.1
20220627041553 83 109 0.0 3.5 0.00 0.00 0.00 54 1016.7
20220627040052 83 93 0.0 3.5 0.00 0.00 0.00 48 1016.6
20220627034551 80 117 0.0 0.0 0.00 0.00 0.00 51 1016.0
20220627033054 81 117 0.0 0.0 0.00 0.00 0.00 49 1015.7
20220627031551 83 117 0.0 0.0 0.00 0.00 0.00 46 1015.4
20220627030050 83 117 0.0 0.0 0.00 0.00 0.00 45 1015.3
20220627024601 84 117 0.0 0.0 0.00 0.00 0.00 44 1015.1
20220627023050 86 117 0.0 0.9 0.00 0.00 0.00 42 1014.9
20220627021548 87 117 0.0 0.0 0.00 0.00 0.00 41 1014.8
20220627020047 88 117 0.0 0.0 0.00 0.00 0.00 39 1014.6
20220627014546 90 117 0.0 3.5 0.00 0.00 0.00 37 1014.5
20220627013046 91 84 0.0 6.1 0.00 0.00 0.00 35 1014.3
20220627011546 92 103 0.0 7.0 0.00 0.00 0.00 33 1014.2
20220627010048 94 86 0.9 6.1 0.00 0.00 0.00 31 1014.0
20220627004545 95 108 1.7 7.0 0.00 0.00 0.00 29 1013.9
20220627003046 95 114 0.0 6.1 0.00 0.00 0.00 29 1013.8
20220627001644 96 93 0.0 8.7 0.00 0.00 0.00 29 1013.5
20220627000043 96 74 2.6 7.8 0.00 0.00 0.00 28 1013.6
20220626234542 97 112 0.0 8.7 0.00 0.00 0.00 27 1013.5
20220626233049 98 114 2.6 8.7 0.00 0.00 0.00 27 1013.4
20220626231543 98 112 1.7 7.0 0.00 0.00 0.00 28 1013.4
20220626230050 98 104 0.9 10.4 0.00 0.00 0.00 29 1013.5
20220626224538 98 91 0.9 4.3 0.00 0.00 0.00 28 1013.6
20220626223038 99 80 1.7 7.0 0.00 0.00 0.00 27 1013.7
20220626221537 100 122 0.0 4.3 0.00 0.00 0.00 26 1013.7
20220626220033 99 99 0.0 9.6 0.00 0.00 0.00 25 1013.9
20220626214536 100 98 1.7 8.7 0.00 0.00 0.00 25 1014.0
20220626213030 100 96 1.7 6.1 0.00 0.00 0.00 24 1014.3
20220626211556 98 212 0.0 8.7 0.00 0.00 0.00 26 1014.5